Tikaboo Peak, Nevada Weather observations

Data are for 10 minute period ending at time listed.
 Day   Time   Solar   Ave.   Ave.  Ave.  Vector  Max.   Baro.   Total    
  of    of     Rad.   Air    Rel.  Wind   Wind   Wind  Press.  Precip.   
Year   Day            Temp.  Hum.  Speed  Dir.   Gust                    
2026   (PST)  Kw/m2    F      %     mph   deg.    mph    mb.     in.     
-------------------------------------------------------------------------
 123    1:50   0.00   50.9    13   10.4   283    15.5   761.8    0.00 
 123    2:00   0.00   50.7    13   10.6   272    15.4   761.8    0.00 
 123    2:10   0.00   50.5    13    8.6   269    14.0   761.8    0.00 
 123    2:20   0.00   50.6    13   10.8   264    14.7   761.8    0.00 
 123    2:30   0.00   50.5    12   12.4   260    16.5   761.7    0.00 
 123    2:40   0.00   50.4    12   14.8   254    16.2   761.6    0.00 
 123    2:50   0.00   50.5    12   15.2   264    16.7   761.6    0.00 
 123    3:00   0.00   50.5    12   12.5   266    16.2   761.5    0.00 
 123    3:10   0.00   50.4    12   13.9   259    19.2   761.6    0.00 
 123    3:20   0.00   49.9    12   15.8   261    19.3   761.5    0.00 
 123    3:30   0.00   50.0    13   13.2   274    17.5   761.5    0.00 
 123    3:40   0.00   50.2    13   10.9   294    17.2   761.5    0.00 
 123    3:50   0.00   50.0    14    8.0   294    14.2   761.4    0.00 
 123    4:00   0.00   49.7    14    6.9   289    13.9   761.3    0.00 
 123    4:10   0.00   49.6    14    7.2   286    13.0   761.3    0.00 
 123    4:20   0.00   49.8    14    8.0   292    15.4   761.2    0.00 
 123    4:30   0.00   49.6    14   10.5   291    17.8   761.2    0.00 
 123    4:40   0.00   49.7    14   10.9   301    17.2   761.2    0.00 
 123    4:50   0.00   49.7    14   10.9   299    17.2   761.2    0.00 
 123    5:00   0.01   49.7    13   10.3   274    14.4   761.2    0.00 
 123    5:10   0.02   49.7    13   12.2   268    15.3   761.3    0.00 
 123    5:20   0.04   49.9    12   12.2   269    15.8   761.4    0.00 
 123    5:30   0.07   50.1    12   11.6   267    15.5   761.4    0.00 
 123    5:40   0.08   50.3    12    9.9   267    15.0   761.4    0.00 
 123    5:50   0.13   50.4    12    9.3   270    14.2   761.6    0.00 
 123    6:00   0.17   51.0    12   10.3   265    15.4   761.6    0.00 
 123    6:10   0.17   50.7    12   12.3   260    16.6   761.8    0.00 
 123    6:20   0.21   50.5    12   14.3   258    17.8   761.7    0.00 
 123    6:30   0.19   51.1    12   13.4   259    17.2   761.7    0.00 
 123    6:40   0.23   50.7    13   12.9   260    18.3   761.7    0.00 
 123    6:50   0.39   52.1    13   13.8   258    17.1   761.7    0.00 
 123    7:00   0.44   53.2    12   14.0   259    18.3   761.7    0.00 
 123    7:10   0.47   53.8    13   11.6   261    16.4   761.8    0.00 
 123    7:20   0.51   54.2    13   10.3   267    16.2   761.9    0.00 
 123    7:30   0.55   55.0    13   10.6   265    16.5   761.9    0.00 
 123    7:40   0.59   54.7    13   10.4   264    18.0   761.9    0.00 
 123    7:50   0.62   56.5    13    8.8   292    17.5   761.9    0.00 
 123    8:00   0.66   55.7    13   11.3   295    22.3   761.8    0.00 
 123    8:10   0.69   56.2    13   12.0   306    22.7   761.8    0.00 
 123    8:20   0.73   56.5    13   11.2   316    18.3   761.8    0.00 
 123    8:30   0.76   57.0    13   10.5   299    20.5   761.8    0.00 
 123    8:40   0.79   57.7    14   13.9   312    21.3   761.8    0.00 
 123    8:50   0.82   57.6    14   11.5   304    19.6   761.8    0.00 
 123    9:00   0.85   57.7    15    9.6   314    18.5   761.8    0.00 
 123    9:10   0.88   59.0    14   10.0   308    18.7   761.7    0.00 
 123    9:20   0.91   59.5    14    7.4   310    14.2   761.6    0.00 
 123    9:30   0.94   61.5    14    6.5   333    13.6   761.6    0.00 
 123    9:40   0.98   62.0    13    5.8   333    15.3   761.5    0.00 
 123    9:50   1.00   61.6    12    6.6   271    14.4   761.5    0.00 
 123   10:00   1.02   61.9    13    8.1   308    19.4   761.5    0.00 
 123   10:10   1.03   61.8    12    9.5   304    21.4   761.3    0.00 
 123   10:20   1.03   60.5    13    7.9   315    16.3   761.3    0.00 
 123   10:30   1.05   62.1    13    8.6   325    17.5   761.1    0.00 
 123   10:40   1.06   61.4    13    8.3   313    21.0   761.1    0.00 
 123   10:50   1.08   60.4    14    9.1   304    18.0   760.9    0.00 
 123   11:00   1.03   61.0    13    9.1   288    20.9   760.9    0.00 
 123   11:10   100.00   59.3    14    6.5   296    15.6   760.8    0.00 
 123   11:20   100.00   61.4    14    8.8   334    20.2   760.7    0.00 
 123   11:30   100.00   60.3    14   11.8   329    28.8   760.6    0.00 
 123   11:40   1.23   61.4    14   15.4   339    28.9   760.4    0.00 
 123   11:50   1.05   61.1    15   14.7   340    27.0   760.2    0.00 
 123   12:00   1.26   61.4    15   12.8   338    28.6   760.3    0.00 
 123   12:10   1.06   62.7    14   11.7   344    23.4   760.0    0.00 
 123   12:20   100.00   60.0    16   16.9   330    30.5   759.9    0.00 
 123   12:30   100.00   59.7    16   17.0   320    30.5   759.9    0.00 
 123   12:40   0.45   59.7    16    8.5   310    22.2   759.9    0.00 
 123   12:50   0.94   60.4    16   13.6   337    23.5   759.6    0.00 
 123   13:00   1.27   62.9    14   11.4   347    28.0   759.6    0.00 
 123   13:10   1.00   63.1    14   11.4   355    21.0   759.4    0.00 
 123   13:20   0.38   61.9    15   13.8   333    35.2   759.3    0.00 
 123   13:30   0.33   58.7    16   13.5   319    28.3   759.2    0.00 
 123   13:40   0.21   58.2    17   12.6   328    34.2   759.2    0.00 
 123   13:50   0.13   56.4    19   13.6   296    27.2   759.1    0.00 
 123   14:00   0.12   56.8    19    9.6   353    18.5   759.1    0.00 
 123   14:10   0.17   57.1    20   13.2   331    26.1   758.9    0.00 
 123   14:20   0.14   56.7    21   13.0   310    31.9   759.0    0.00 
 123   14:30   0.14   53.9    26   12.7   232    33.7   758.9    0.00 
 123   14:40   0.15   54.4    25    6.2   340    13.3   758.8    0.00 
 123   14:50   0.26   56.6    23    2.6     1    13.7   758.7    0.00 
 123   15:00   0.26   57.2    23    6.4    12    15.3   758.7    0.00 
 123   15:10   0.36   57.6    22    5.4     8    16.0   758.5    0.00 
 123   15:20   0.41   57.8    22   11.4   349    21.5   758.4    0.00 
 123   15:30   0.27   57.8    21    8.6   331    18.2   758.4    0.00 
 123   15:40   0.23   57.1    21   16.2   320    29.5   758.2    0.00 
 123   15:50   0.21   56.1    22   13.9   315    24.0   758.3    0.00 
 123   16:00   0.34   56.8    22    4.7   325    14.8   758.4    0.00 
 123   16:10   0.13   56.9    22    7.4   319    15.6   758.3    0.00 
 123   16:20   0.11   55.8    24   15.4   319    27.0   758.3    0.00 
 123   16:30   0.12   55.3    24   14.3   338    24.1   758.2    0.00 
 123   16:40   0.09   55.0    25   13.8   340    29.0   758.2    0.00 
 123   16:50   0.09   55.0    25   13.0   332    25.8   758.2    0.00 
 123   17:00   0.10   54.9    25   13.8   337    29.5   758.2    0.00 
 123   17:10   0.09   54.8    27   12.2   328    23.2   758.1    0.00 
 123   17:20   0.09   54.8    26    8.1   341    16.2   758.1    0.00 
 123   17:30   0.08   54.7    27    8.8   328    15.1   758.0    0.00 
 123   17:40   0.08   54.6    27    6.0   342    11.0   758.0    0.00 
 123   17:50   0.06   54.3    26    4.8   350    10.6   757.8    0.00 
 123   18:00   0.05   54.0    27    3.7    21     6.6   757.8    0.00 
 123   18:10   0.02   53.7    27    3.0   333     7.5   757.7    0.00 
 123   18:20   0.01   53.1    27    2.3   354     5.2   757.7    0.00 
 123   18:30   0.01   52.7    28    6.6    36    14.5   757.7    0.00 
 123   18:40   0.00   52.3    29    7.2    34    13.5   757.7    0.00 
 123   18:50   0.00   51.8    30    6.0    37     9.7   757.7    0.00 
 123   19:00   0.00   51.4    31    7.9    36    12.9   757.6    0.00 
 123   19:10   0.00   50.8    33   10.0    10    15.8   757.7    0.00 
 123   19:20   0.00   50.6    33    9.5   351    17.9   757.8    0.00 
 123   19:30   0.00   50.7    32    7.0   323    10.4   757.8    0.00 
 123   19:40   0.00   51.5    29   11.3   315    16.1   757.8    0.00 
 123   19:50   0.00   52.1    28   11.6   311    16.4   757.9    0.00 
 123   20:00   0.00   52.6    27   11.3   308    16.4   757.9    0.00 
 123   20:10   0.00   52.6    27   10.3   312    14.9   758.0    0.00 
 123   20:20   0.00   52.6    28    9.0   334    13.4   758.3    0.00 
 123   20:30   0.00   52.1    29   12.2   343    24.0   758.4    0.00 
 123   20:40   0.00   51.5    30   13.1   347    29.4   758.4    0.00 
 123   20:50   0.00   50.5    35   15.8   340    24.3   758.5    0.00 
 123   21:00   0.00   49.7    37   15.4   324    21.5   758.3    0.00 
 123   21:10   0.00   49.8    34    7.7   330    15.7   758.1    0.00 
 123   21:20   0.00   50.1    33   10.2   326    17.1   758.2    0.00 
 123   21:30   0.00   50.6    31    9.0   318    13.7   758.1    0.00 
 123   21:40   0.00   51.1    30    9.9   318    15.8   758.1    0.00 
 123   21:50   0.00   51.0    33   10.5    24    20.4   758.0    0.00 
 123   22:00   0.00   50.6    33    2.9    41     8.6   757.9    0.00 
 123   22:10   0.00   50.3    34    2.5   209     5.3   757.9    0.00 
 123   22:20   0.00   50.3    34    3.6   296     9.9   757.9    0.00 
 123   22:30   0.00   49.9    35    6.9   214     9.5   758.0    0.00 
 123   22:40   0.00   49.4    36    8.0   239    12.9   758.0    0.00 
 123   22:50   0.00   49.0    39    8.5   209    12.5   758.0    0.00 
 123   23:00   0.00   48.1    42   14.4   196    20.3   758.0    0.00 
 123   23:10   0.00   48.1    40   11.7   248    19.0   758.0    0.00 
 123   23:20   0.00   48.6    38    4.2   310     8.1   758.0    0.00 
 123   23:30   0.00   48.7    38    5.2   312    11.6   758.0    0.00 
 123   23:40   0.00   48.7    38   10.1   333    15.0   758.1    0.00 
 123   23:50   0.00   48.4    40    8.5   343    11.8   758.0    0.00 
 124    0:00   0.00   48.2    40    8.3    16    12.9   757.8    0.00 
 124    0:10   0.00   48.1    41   10.4    24    14.2   757.8    0.00 
 124    0:20   0.00   47.7    42   10.8    27    13.3   757.8    0.00 
 124    0:30   0.00   47.4    43   10.2    33    12.3   757.8    0.00 
 124    0:40   0.00   47.3    44   11.7    29    14.4   757.7    0.00 
 124    0:50   0.00   47.3    45   11.3    25    14.0   757.7    0.00 
 124    1:00   0.00   47.3    45   11.3    16    15.3   757.7    0.00 
 124    1:10   0.00   47.3    41   11.7     1    15.2   757.7    0.00 
 124    1:20   0.00   47.3    40   10.6   354    13.8   757.7    0.00 
 124    1:30   0.00   47.1    41    9.5   355    12.9   757.8    0.00 
 124    1:40   0.00   46.9    41    9.9     9    13.0   757.8    0.00 

Return to Tikaboo Peak graphs page.


Western Regional Climate Center,wrcc@dri.edu